#timestamp,LO_Frequency,Hit,StdDev 
1538697615.4,286046998.7,N
1538697635.2,286046999.5,N
1538697655.0,286046999.3,N
1538697655.9,286046999.3,N
1538697675.8,286046998.4,N
1538697695.6,286046999.4,N
1538697715.4,286046998.6,N
1538697735.3,286046998.6,N
1538697755.1,286046996.9,N
1538697775.9,286046996.5,N
1538697795.7,286046998.9,N
1538697815.5,286046997.5,N
1538697835.4,286046995.2,Y
1538697855.2,286046995.0,P
1538697875.0,286046999.0,N
1538697875.9,286046999.0,N
1538697895.8,286046999.5,N
1538697915.6,286046998.8,N
1538697935.5,286046998.5,N
1538697955.3,286046998.7,N
1538697975.1,286046998.2,N
1538697995.9,286046998.9,N
1538698015.7,286047000.8,N
1538698035.5,286046998.2,N
1538698055.4,286046998.1,N
1538698075.2,286047001.1,N
1538698095.1,286046999.5,N
1538698096.0,286046999.5,N
1538698115.8,286046998.3,N
1538698135.6,286047000.3,N
1538698155.5,286047000.9,N
1538698175.3,286046998.2,N
1538698195.8,286046998.3,N
1538698215.6,286046998.1,N
1538698235.5,286047000.8,N
1538698255.3,286046998.7,N
1538698275.1,286047001.5,N
1538698295.9,286046999.9,N
1538698315.7,286046998.1,N
1538698335.5,286046998.3,N
1538698355.4,286047000.7,N
1538698375.2,286046999.9,N
1538698395.1,286047000.8,N
1538698396.0,286047000.8,N
1538698415.8,286046998.2,N
1538698435.6,286046998.1,N
1538698455.5,286046998.8,N
1538698475.3,286047000.7,N
1538698495.2,286047000.8,N
1538698515.9,286047000.0,N
1538698535.7,286047001.1,N
1538698555.6,286047002.1,N
1538698575.4,286046999.8,N
1538698595.2,286047000.2,N
1538698615.1,286046999.7,N
1538698616.0,286046999.7,N
1538698635.8,286047001.6,N
1538698655.7,286047002.5,N
1538698675.5,286047002.3,N
1538698695.3,286047002.3,N
1538698715.2,286047001.7,N
1538698735.9,286047003.6,N
1538698755.7,286047003.4,N
1538698775.6,286047004.0,N
1538698795.4,286047003.5,N
1538698815.3,286047004.3,N
1538698835.1,286047003.1,N
1538698855.8,286047004.2,N
1538698875.7,286047004.4,N
1538698895.5,286047003.9,N
1538698915.4,286047004.0,N
1538698935.2,286047004.0,N
1538698955.0,286047003.3,N
1538698955.9,286047003.3,N
1538698975.8,286047003.8,N
1538698995.6,286047001.6,N
1538699015.4,286047004.3,N
1538699035.3,286047001.3,N
1538699055.1,286047003.4,N
1538699075.9,286047003.8,N
1538699095.7,286047001.3,N
1538699115.5,286047004.0,N
1538699135.4,286047004.1,N
1538699155.2,286047002.1,N
1538699175.1,286047004.4,Y
1538699176.0,286047004.4,P
1538699195.8,286047001.2,N
1538699215.6,286046998.5,N
1538699235.5,286047000.4,N
1538699255.3,286047000.3,N
1538699275.2,286047002.1,N
1538699295.9,286047002.2,N
1538699315.7,286046999.7,N
1538699335.6,286047000.4,N
1538699355.4,286047000.7,N
1538699375.3,286047000.7,N
1538699395.1,286046999.9,N
1538699396.0,286046999.9,N
1538699415.5,286047000.3,N
1538699435.4,286047001.1,N
1538699455.2,286047000.5,N
1538699475.0,286047001.0,N
1538699475.9,286047001.0,N
1538699495.8,286047000.8,N
1538699515.6,286047000.3,N
1538699535.5,286046998.2,N
1538699555.3,286047001.0,N
1538699575.1,286046999.9,N
1538699595.9,286046998.5,N
1538699615.7,286046999.2,N
1538699635.5,286046998.3,N
1538699655.4,286046999.4,N
1538699675.2,286046999.3,N
1538699695.1,286046999.4,N
1538699696.0,286046999.4,N
1538699715.8,286046999.0,N
1538699735.6,286046998.7,N
1538699755.5,286046998.4,N
1538699775.3,286046996.5,Y
1538699795.2,286046998.4,P
1538699815.9,286047000.8,N
1538699835.7,286047000.7,N
1538699855.6,286046998.1,N
1538699875.4,286047000.6,N
1538699895.3,286047000.0,N
1538699915.1,286047000.6,N
1538699916.0,286047000.6,N
1538699935.8,286047002.8,N
1538699955.7,286047000.9,N
1538699975.5,286047003.8,Y
1538699995.3,286047001.7,P
1538700015.2,286047001.6,N
1538700035.0,286047000.1,N
1538700035.9,286047000.1,N
1538700055.8,286047000.3,N
1538700075.6,286047000.4,N
1538700095.4,286047000.4,N
1538700115.3,286046999.8,N
1538700135.1,286047002.4,Y
1538700155.9,286047000.0,P
1538700175.7,286047003.8,P
1538700195.5,286047001.6,N
1538700215.4,286047002.2,N
1538700235.2,286047000.4,N
1538700255.0,286047000.2,N
1538700255.9,286047000.2,N
1538700275.8,286047000.5,N
1538700295.6,286047000.2,N
1538700315.5,286047000.2,N
1538700335.3,286046999.7,N
1538700355.1,286047002.1,N
1538700375.9,286046999.7,N
1538700395.9,286047002.0,N
1538700415.7,286047002.1,N
1538700435.6,286047002.8,N
1538700455.4,286047000.1,N
1538700475.3,286047000.0,N
1538700495.1,286047000.5,N
1538700496.0,286047000.5,N
1538700515.8,286047000.4,N
1538700535.7,286047000.1,N
1538700555.5,286047000.1,N
1538700575.3,286047001.6,N
1538700595.2,286046999.8,N
1538700615.0,286047002.6,N
1538700615.9,286047002.6,N
1538700635.8,286047001.7,N
1538700655.6,286047002.5,N
1538700675.4,286047001.6,N
1538700695.3,286047003.8,Y
1538700715.1,286047001.5,P
1538700735.9,286047002.4,P
1538700755.7,286047002.2,P
1538700775.5,286047001.6,N
1538700795.4,286047002.3,Y
1538700815.2,286046998.3,P
1538700835.1,286046999.2,N
1538700836.0,286046999.2,N
1538700855.8,286047001.1,N
1538700875.6,286046997.0,N
1538700895.5,286046996.5,N
1538700915.3,286046998.4,N
1538700935.1,286046998.3,N
1538700955.9,286046999.6,N
1538700975.7,286047000.5,N
1538700995.6,286047000.9,N
1538701015.4,286047002.8,N
1538701035.2,286047000.2,N
1538701055.1,286047002.5,N
1538701056.0,286047002.5,N
1538701075.8,286046999.9,N
1538701095.7,286047002.7,N
1538701115.5,286047000.0,N
1538701135.5,286047000.2,N
1538701155.3,286047000.3,N
1538701175.1,286047000.6,N
1538701195.9,286047001.0,N
